Bemidji, MN

5:20 AM CST on December 15, 2017 (GMT -0600)
Bemidji-Beltrami County

Weather History for KBJI - October, 2012

Change the Weather History Date:

Wednesday, October 10, 2012

  Actual Average Record
Temperature  
Mean Temperature 34 °F -  
Max Temperature 42 °F 53 °F 84 °F (1955)
Min Temperature 27 °F 35 °F 19 °F (1956)
Degree Days  
Heating Degree Days 30    
Moisture  
Dew Point 29 °F    
Average Humidity 82    
Maximum Humidity 100    
Minimum Humidity 54    
Precipitation  
Precipitation 0.15 in - - ()
Sea Level Pressure  
Sea Level Pressure 29.94 in    
Wind  
Wind Speed 7 mph (WSW)    
Max Wind Speed 15 mph    
Max Gust Speed 20 mph    
Visibility 8 miles    
Events Rain , Snow    
Averages and records for this station are not official NWS values.
T = Trace of Precipitation, MM = Missing Value Source: NWS Daily Summary

Daily Weather History Graph

Daily Weather History Graph

Search for Another Location

Airport or City:

Trip Planner

Search our weather history database for the weather conditions in past years. The results will help you decide how hot, cold, wet, or windy it might be!

Date:

Astronomy

Oct. 10, 2012 Rise Set
Actual Time 7:32 AM CDT 6:40 PM CDT
Civil Twilight 7:01 AM CDT 7:11 PM CDT
Nautical Twilight 6:25 AM CDT 7:46 PM CDT
Astronomical Twilight 5:49 AM CDT 8:22 PM CDT
Moon 1:48 AM CDT (10/10) 4:01 PM CDT (10/10)
Length of Visible Light 12h 09m
Length of Day
11h 08m
Waning Crescent, 27% of the Moon is Illuminated
Oct 10
Waning Crescent
Oct 15
New
Oct 21
First Quarter
Oct 29
Full
Nov 6
Last Quarter

Hourly Weather History & Observations

Time (CDT) Temp. Windchill Dew Point Humidity Pressure Visibility Wind Dir Wind Speed Gust Speed Precip Events Conditions
12:15 AM 31.5 °F 24.2 °F 27.5 °F 85% 29.93 in 10.0 mi West 8.1 mph - N/A   Scattered Clouds
12:35 AM 30.2 °F 22.6 °F 27.3 °F 89% 29.93 in 10.0 mi West 8.1 mph - N/A   Scattered Clouds
12:55 AM 29.7 °F 22.8 °F 27.1 °F 90% 29.93 in 10.0 mi WNW 6.9 mph - N/A   Scattered Clouds
1:15 AM 28.8 °F 20.9 °F 26.4 °F 91% 29.94 in 10.0 mi West 8.1 mph - N/A   Scattered Clouds
1:35 AM 28.6 °F 21.5 °F 26.4 °F 92% 29.94 in 10.0 mi West 6.9 mph - N/A   Scattered Clouds
1:55 AM 29.3 °F 21.5 °F 27.1 °F 92% 29.94 in 10.0 mi West 8.1 mph - N/A   Overcast
2:15 AM 30.0 °F 23.2 °F 27.5 °F 90% 29.94 in 10.0 mi West 6.9 mph - N/A   Overcast
2:35 AM 30.2 °F 23.4 °F 27.7 °F 90% 29.95 in 10.0 mi West 6.9 mph - N/A   Overcast
2:55 AM 30.2 °F 23.4 °F 28.0 °F 92% 29.95 in 10.0 mi West 6.9 mph - N/A   Overcast
3:15 AM 30.6 °F 23.8 °F 28.2 °F 91% 29.95 in 10.0 mi West 6.9 mph - N/A   Overcast
3:35 AM 30.9 °F 24.3 °F 28.2 °F 90% 29.95 in 10.0 mi West 6.9 mph - N/A   Overcast
3:55 AM 31.1 °F 24.5 °F 28.2 °F 89% 29.95 in 10.0 mi West 6.9 mph - N/A   Overcast
4:15 AM 31.1 °F 23.7 °F 28.2 °F 89% 29.96 in 10.0 mi West 8.1 mph - N/A   Overcast
4:35 AM 31.1 °F 24.5 °F 28.4 °F 90% 29.96 in 10.0 mi West 6.9 mph - N/A   Overcast
4:55 AM 31.1 °F 24.5 °F 28.4 °F 90% 29.96 in 10.0 mi West 6.9 mph - N/A   Overcast
5:15 AM 30.9 °F 24.3 °F 28.4 °F 90% 29.96 in 10.0 mi West 6.9 mph - N/A   Overcast
5:35 AM 30.4 °F 23.6 °F 28.2 °F 92% 29.96 in 10.0 mi West 6.9 mph - N/A   Overcast
5:55 AM 29.5 °F 22.5 °F 27.7 °F 93% 29.97 in 10.0 mi WSW 6.9 mph - N/A   Scattered Clouds
6:15 AM 28.6 °F 21.5 °F 27.3 °F 95% 29.97 in 10.0 mi WSW 6.9 mph - N/A   Clear
6:35 AM 28.6 °F 20.7 °F 27.3 °F 95% 29.97 in 10.0 mi WSW 8.1 mph - N/A   Clear
6:55 AM 28.4 °F 22.2 °F 27.1 °F 95% 29.97 in 10.0 mi WSW 5.8 mph - N/A   Clear
7:15 AM 28.0 °F 21.7 °F 26.8 °F 95% 29.97 in 10.0 mi WSW 5.8 mph - N/A   Clear
7:35 AM 27.9 °F 21.5 °F 26.6 °F 95% 29.97 in 10.0 mi SW 5.8 mph - N/A   Clear
7:55 AM 27.7 °F 21.3 °F 26.4 °F 95% 29.97 in 10.0 mi WSW 5.8 mph - N/A   Clear
8:35 AM 28.6 °F 22.4 °F 26.6 °F 92% 29.97 in 10.0 mi SW 5.8 mph - N/A   Clear
8:55 AM 29.5 °F 24.5 °F 27.0 °F 90% 29.97 in 10.0 mi SW 4.6 mph - N/A   Clear
9:15 AM 30.7 °F 26.0 °F 27.3 °F 87% 29.97 in 10.0 mi WSW 4.6 mph - N/A   Clear
9:35 AM 32.2 °F 26.7 °F 27.7 °F 83% 29.98 in 10.0 mi WSW 5.8 mph - N/A   Clear
9:55 AM 33.8 °F 27.0 °F 28.4 °F 81% 29.98 in 10.0 mi WSW 8.1 mph - N/A   Clear
10:15 AM 34.9 °F 28.3 °F 27.7 °F 75% 29.98 in 10.0 mi WSW 8.1 mph - N/A   Clear
10:35 AM 35.6 °F 29.2 °F 26.6 °F 70% 29.99 in 10.0 mi WSW 8.1 mph - N/A   Scattered Clouds
10:55 AM 37.2 °F 29.1 °F 26.4 °F 65% 29.99 in 10.0 mi WSW 12.7 mph - N/A   Scattered Clouds
11:15 AM 39.4 °F 32.3 °F 26.6 °F 60% 29.98 in 10.0 mi WSW 11.5 mph - N/A   Scattered Clouds
11:55 AM 40.8 °F 34.5 °F 26.1 °F 56% 29.97 in 10.0 mi West 10.4 mph - N/A   Clear
12:15 PM 41.4 °F 35.2 °F 25.9 °F 54% 29.97 in 10.0 mi WSW 10.4 mph - N/A   Scattered Clouds
12:35 PM 41.7 °F 34.8 °F 26.4 °F 55% 29.97 in 10.0 mi West 12.7 mph - N/A   Scattered Clouds
12:55 PM 41.7 °F 36.1 °F 27.0 °F 56% 29.96 in 10.0 mi WSW 9.2 mph - N/A   Mostly Cloudy
1:15 PM 42.3 °F 37.3 °F 27.9 °F 57% 29.96 in 10.0 mi WSW 8.1 mph - N/A   Mostly Cloudy
1:35 PM 42.8 °F 35.4 °F 28.8 °F 58% 29.95 in 10.0 mi West 15.0 mph 19.6 mph N/A   Mostly Cloudy
1:55 PM 42.1 °F 35.7 °F 28.4 °F 58% 29.94 in 10.0 mi WSW 11.5 mph 16.1 mph N/A   Mostly Cloudy
2:15 PM 41.9 °F 35.4 °F 28.2 °F 58% 29.94 in 10.0 mi WSW 11.5 mph 18.4 mph N/A   Mostly Cloudy
2:35 PM 41.9 °F 35.0 °F 27.9 °F 58% 29.93 in 10.0 mi West 12.7 mph - N/A   Mostly Cloudy
2:55 PM 41.9 °F 35.4 °F 28.0 °F 58% 29.93 in 10.0 mi WSW 11.5 mph 18.4 mph N/A   Overcast
3:15 PM 41.7 °F 34.8 °F 28.0 °F 58% 29.93 in 10.0 mi WSW 12.7 mph - N/A   Overcast
3:35 PM 41.7 °F 35.2 °F 27.5 °F 57% 29.93 in 10.0 mi WSW 11.5 mph - N/A   Overcast
3:55 PM 41.9 °F 36.3 °F 27.5 °F 57% 29.93 in 10.0 mi West 9.2 mph - N/A   Overcast
4:15 PM 41.9 °F 35.4 °F 27.3 °F 56% 29.92 in 10.0 mi WSW 11.5 mph - N/A   Overcast
4:35 PM 41.9 °F 35.4 °F 26.2 °F 54% 29.91 in 10.0 mi WSW 11.5 mph - N/A   Overcast
4:55 PM 41.5 °F 36.4 °F 26.2 °F 55% 29.91 in 10.0 mi West 8.1 mph - N/A   Overcast
5:15 PM 40.8 °F 34.5 °F 26.2 °F 56% 29.92 in 10.0 mi West 10.4 mph 17.3 mph N/A   Overcast
5:35 PM 39.9 °F 35.8 °F 26.2 °F 58% 29.92 in 10.0 mi West 5.8 mph - N/A   Overcast
5:55 PM 39.4 °F 33.8 °F 27.3 °F 62% 29.92 in 10.0 mi WSW 8.1 mph - N/A   Light Drizzle
6:35 PM 36.0 °F - 32.0 °F 86% 29.92 in 10.0 mi Calm Calm - N/A Rain Light Rain
6:55 PM 35.1 °F - 32.2 °F 89% 29.91 in 10.0 mi Calm Calm - N/A Rain Light Rain
7:15 PM 34.5 °F - 32.7 °F 93% 29.91 in 5.0 mi Calm Calm - N/A Rain Rain
7:35 PM 33.4 °F - 32.0 °F 94% 29.91 in 4.0 mi Calm Calm - 0.01 in   Overcast
7:55 PM 32.7 °F - 32.0 °F 97% 29.91 in 3.0 mi Calm Calm - 0.03 in Snow Light Snow
8:15 PM 32.2 °F - 32.0 °F 99% 29.90 in 2.5 mi Calm Calm - 0.02 in Snow Light Snow
8:35 PM 32.0 °F - 32.0 °F 100% 29.91 in 2.5 mi Calm Calm - 0.03 in Snow Light Snow
8:55 PM 32.0 °F - 32.0 °F 100% 29.91 in 1.5 mi Calm Calm - 0.04 in Snow Light Snow
9:15 PM 32.0 °F - 32.0 °F 100% 29.91 in 1.2 mi Calm Calm - 0.01 in Snow Light Snow
9:35 PM 32.0 °F - 32.0 °F 100% 29.91 in 1.0 mi Calm Calm - 0.03 in Snow Light Snow
9:55 PM 32.0 °F - 32.0 °F 100% 29.91 in 1.0 mi Calm Calm - 0.05 in Snow Light Snow
10:15 PM 32.0 °F - 32.0 °F 100% 29.91 in 1.2 mi Calm Calm - 0.02 in Snow Light Snow
10:35 PM 32.0 °F - 32.0 °F 100% 29.91 in 1.2 mi Calm Calm - 0.02 in Snow Light Snow
10:55 PM 32.0 °F - 32.0 °F 100% 29.91 in 2.5 mi Calm Calm - 0.03 in Rain Light Rain
11:15 PM 32.0 °F - 32.0 °F 100% 29.91 in 4.0 mi Calm Calm - N/A Rain Light Rain
11:35 PM 32.0 °F - 32.0 °F 100% 29.91 in 4.0 mi Calm Calm - N/A Rain Light Rain
11:55 PM 32.0 °F - 32.0 °F 100% 29.91 in 5.0 mi Calm Calm - N/A Rain Light Rain